Weather History for Swansboro, NC

Change the Weather History Date:

Saturday, July 13, 2013

  Actual Average (KNKT) Record (KNKT)
Temperature  
Mean Temperature 78 °F -  
Max Temperature 84 °F 84 °F 99 °F (2011)
Min Temperature 73 °F 68 °F 61 °F (1997)
Cooling Degree Days 14    
Growing Degree Days 28 (Base 50)    
Moisture  
Dew Point 72 °F    
Average Humidity 79    
Maximum Humidity 94    
Minimum Humidity 67    
Precipitation  
Precipitation 0.00 in - - ()
Sea Level Pressure  
Sea Level Pressure 30.09 in    
Wind  
Wind Speed 8 mph (SSE)    
Max Wind Speed 20 mph    
Max Gust Speed 38 mph    
Visibility 8 miles    
Events Rain , Thunderstorm    
Averages and records for this station are not official NWS values.
T = Trace of Precipitation, MM = Missing Value Source: NWS Daily Summary

Daily Weather History Graph

Daily Weather History Graph

Search for Another Location

Airport:

Trip Planner

Search our weather history database for the weather conditions in past years. The results will help you decide how hot, cold, wet, or windy it might be!

Date:

Astronomy

Jul. 13, 2013 Rise Set
Actual Time 6:05 AM EDT 8:22 PM EDT
Civil Twilight 5:36 AM EDT 8:51 PM EDT
Nautical Twilight 5:00 AM EDT 9:26 PM EDT
Astronomical Twilight 4:22 AM EDT 10:05 PM EDT
Moon 11:04 AM EDT (7/13) 11:18 PM EDT (7/13)
Length of Visible Light 15h 15m
Length of Day
14h 17m
Waxing Crescent, 25% of the Moon is Illuminated
Jul 13
Waxing Crescent
Jul 15
First Quarter
Jul 22
Full
Jul 29
Last Quarter
Aug 6
New

Hourly Weather History & Observations

Time (EDT) Temp. Heat Index Dew Point Humidity Pressure Visibility Wind Dir Wind Speed Gust Speed Precip Events Conditions
12:34 AM 75.2 °F - 71.6 °F 89% 30.01 in 10.0 mi NNE 3.5 mph - N/A   Mostly Cloudy
12:57 AM 75.0 °F - 71.1 °F 87% 30.02 in 10.0 mi Calm Calm - N/A   Overcast
1:24 AM - - - N/A% 30.02 in 10.0 mi North 5.8 mph - N/A   Overcast
1:45 AM - - - N/A% 30.01 in 10.0 mi North 6.9 mph - N/A   Mostly Cloudy
1:57 AM - - - N/A% 30.04 in 10.0 mi NNE 4.6 mph - N/A   Scattered Clouds
2:54 AM 73.4 °F - 71.6 °F 94% 30.02 in 6.0 mi Calm Calm - N/A Rain , Thunderstorm Light Rain
2:57 AM 73.9 °F - 72.0 °F 93% 30.03 in 7.0 mi WNW 3.5 mph - N/A Rain , Thunderstorm Light Rain
3:09 AM 73.4 °F - 71.6 °F 94% 30.02 in 10.0 mi North 4.6 mph - N/A   Scattered Clouds
3:57 AM - - - N/A% 30.03 in 10.0 mi Calm Calm - N/A   Clear
4:38 AM - - - N/A% 30.02 in 2.0 mi South 17.3 mph 25.3 mph N/A Rain Heavy Rain
4:40 AM - - - N/A% 30.02 in 1.2 mi South 17.3 mph 25.3 mph N/A Rain Heavy Rain
4:50 AM - - - N/A% 30.03 in 2.0 mi South 10.4 mph - N/A Rain Light Rain
4:53 AM - - - N/A% 30.03 in 4.0 mi South 9.2 mph - N/A Rain Light Rain
4:57 AM - - - N/A% 30.05 in 10.0 mi South 11.5 mph - N/A   Overcast
5:19 AM - - - N/A% 30.03 in 10.0 mi South 6.9 mph - N/A   Mostly Cloudy
5:35 AM - - - N/A% 30.04 in 10.0 mi SSE 10.4 mph 17.3 mph N/A Rain Light Rain
5:57 AM - - - N/A% 30.06 in 9.0 mi South 8.1 mph - N/A Rain Light Rain
6:28 AM - - - N/A% 30.05 in 10.0 mi South 5.8 mph - N/A Thunderstorm Thunderstorm
6:57 AM - - - N/A% 30.07 in 10.0 mi SSE 6.9 mph - N/A   Mostly Cloudy
7:13 AM - - - N/A% 30.06 in 10.0 mi SSE 8.1 mph - N/A   Mostly Cloudy
7:26 AM 78.8 °F - 71.6 °F 78% 30.06 in 10.0 mi South 6.9 mph - N/A   Mostly Cloudy
7:57 AM 78.1 °F - 72.0 °F 81% 30.09 in 10.0 mi South 9.2 mph - N/A Rain Light Rain
8:11 AM 78.8 °F - 73.4 °F 83% 30.08 in 10.0 mi SSE 8.1 mph - N/A   Overcast
8:22 AM 80.6 °F 85.4 °F 73.4 °F 79% 30.09 in 10.0 mi SSE 9.2 mph - N/A   Overcast
8:43 AM 77.0 °F - 71.6 °F 83% 30.10 in 1.0 mi South 11.5 mph 26.5 mph N/A Rain Heavy Rain
8:49 AM 78.8 °F - 71.6 °F 78% 30.10 in 4.0 mi South 9.2 mph - N/A Rain Light Rain
8:57 AM 78.1 °F - 72.0 °F 81% 30.11 in 10.0 mi South 9.2 mph - N/A   Overcast
9:57 AM 81.0 °F 84.9 °F 71.1 °F 72% 30.12 in 10.0 mi SSE 13.8 mph 17.3 mph N/A   Mostly Cloudy
10:57 AM 82.0 °F 87.9 °F 73.9 °F 76% 30.13 in 9.0 mi SE 12.7 mph 19.6 mph N/A   Partly Cloudy
11:57 AM 84.0 °F 91.2 °F 73.9 °F 72% 30.14 in 10.0 mi SE 15.0 mph 19.6 mph N/A   Partly Cloudy
12:57 PM 84.0 °F 89.6 °F 72.0 °F 67% 30.15 in 10.0 mi SSE 15.0 mph 23.0 mph N/A   Partly Cloudy
1:57 PM 84.9 °F 91.4 °F 73.0 °F 67% 30.15 in 10.0 mi SE 17.3 mph 23.0 mph N/A   Mostly Cloudy
2:57 PM 84.9 °F 91.4 °F 73.0 °F 67% 30.14 in 10.0 mi SE 18.4 mph 25.3 mph N/A   Mostly Cloudy
3:57 PM 79.0 °F - 70.0 °F 74% 30.16 in 1.5 mi SSE 17.3 mph 38.0 mph N/A Rain Heavy Rain
4:57 PM 82.0 °F 87.4 °F 73.0 °F 74% 30.14 in 10.0 mi SE 15.0 mph - N/A   Mostly Cloudy
5:57 PM 82.9 °F 88.0 °F 72.0 °F 69% 30.16 in 10.0 mi SSE 16.1 mph 21.9 mph N/A   Partly Cloudy
6:35 PM 78.8 °F - 71.6 °F 78% 30.16 in 2.5 mi SSE 17.3 mph 28.8 mph N/A Rain Light Rain
6:57 PM 77.0 °F - 73.0 °F 88% 30.19 in 2.0 mi SSE 19.6 mph 27.6 mph N/A Rain Heavy Rain
7:10 PM 77.0 °F - 71.6 °F 83% 30.17 in 9.0 mi SSE 11.5 mph 23.0 mph N/A Rain Light Rain
7:57 PM 78.1 °F - 72.0 °F 81% 30.18 in 9.0 mi SE 8.1 mph - N/A   Clear
8:57 PM 80.1 °F 83.6 °F 71.1 °F 74% 30.18 in 10.0 mi SSE 10.4 mph - N/A   Clear
9:57 PM 80.1 °F 83.8 °F 72.0 °F 76% 30.20 in 10.0 mi SSE 8.1 mph - N/A   Clear
10:57 PM 80.1 °F 83.2 °F 70.0 °F 71% 30.22 in 10.0 mi SE 9.2 mph - N/A   Clear
11:57 PM 80.1 °F 83.2 °F 70.0 °F 71% 30.22 in 10.0 mi SE 9.2 mph - N/A   Clear